Hourly Data Report for October 04, 2014

All times are specified in Local Standard Time (LST). Add 1 hour to adjust for Daylight Saving Time where and when it is observed.

WINNIPEG A CS
MANITOBA

49°55'00.000" N
97°14'58.000" W
238.70 m
502S001
71849
XWG

Download Data

Hourly Data (October 2014)
Hourly Data Report for October 4, 2014
Temp Definition
°C
Dew Point Temp Definition
°C
Rel Hum Definition
%
Wind Dir Definition
10's deg

Wind Spd Definition
km/h
Visibility Definition
km
Stn Press Definition
kPa
Hmdx Definition


Wind Chill Definition


Weather Definition


TIME
00:00 3.7 -1.3 70 33 30   98.43     LegendNANA
01:00 2.1 -1.4 78 33 25   98.45     LegendNANA
02:00 1.2 -1.4 83 31 19   98.44     LegendNANA
03:00 1.5 -1.7 79 33 22   98.39     LegendNANA
04:00 2.7 -1.4 74 32 24   98.37     LegendNANA
05:00 3.0 -2.2 69 32 25   98.35     LegendNANA
06:00 3.0 -2.3 68 33 30   98.35     LegendNANA
07:00 2.8 -2.2 70 33 29   98.29     LegendNANA
08:00 2.6 -1.4 75 32 17   98.26     LegendNANA
09:00 4.4 -0.6 70 33 33   98.24     LegendNANA
10:00 5.2 -0.6 66 32 36   98.21     LegendNANA
11:00 6.4 -1.5 57 32 29   98.17     LegendNANA
12:00 5.7 -1.7 59 33 28   98.12     LegendNANA
13:00 4.8 -1.1 65 33 30   98.06     LegendNANA
14:00 5.2 1.1 75 30 33   98.01     LegendNANA
15:00 4.4 1.2 80 30 32   97.95     LegendNANA
16:00 3.5 0.4 80 30 29   97.91     LegendNANA
17:00 2.6 0.8 88 30 22   97.91     LegendNANA
18:00 2.6 0.1 83 32 20   97.85     LegendNANA
19:00 1.9 -0.9 82 32 15   97.80     LegendNANA
20:00 -0.1 -1.6 90 31 8   97.72   -3 LegendNANA
21:00 -0.1 -1.8 89 28 11   97.68   -4 LegendNANA
22:00 -1.7 -2.9 92 27 12   97.61   -6 LegendNANA
23:00 -1.3 -2.7 90 27 12   97.55   -5 LegendNANA

Notes on Data Quality.

Legend

  • E = Estimated
  • M = Missing
  • NA = Not Available
  • ‡ = Partner data that is not subject to review by the National Climate Archives
Date modified: